DW6145 Weather Reports


Display with metric or nautical units.
time (UTC)temp
F
wind
direction
speed
MPH
gust
MPH
rain 1hr
in
rain 24hr
in
rain mn
in
humidity
%
barometer
mb
20260831051003 70 9 0.0 0.0 0.00 0.00 0.00 71 1012.5
20260831050003 70 9 0.0 0.0 0.00 0.00 0.00 71 1055.6
20260831045004 70 9 0.0 2.0 0.00 0.00 0.00 71 1004.2
20260831044003 70 9 0.0 0.0 0.00 0.00 0.00 71 1014.5
20260831043004 70 9 0.0 2.0 0.00 0.00 0.00 71 1027.8
20260831042452 70 9 0.0 0.0 0.00 0.00 0.00 71 1010.4
20260831041000 70 9 0.0 0.0 0.00 0.00 0.00 71 1059.6
20260831040441 70 9 0.0 0.0 0.00 0.00 0.00 70 1012.8
20260831034955 70 9 0.0 0.0 0.00 0.00 0.00 70 1012.8
20260831033952 70 9 0.0 0.0 0.00 0.00 0.00 70 875.1
20260831032953 70 9 0.0 0.0 0.00 0.00 0.00 71 1234.2
20260831031948 70 9 0.0 0.0 0.00 0.00 0.00 71 1037.5
20260831030949 71 9 0.0 0.0 0.00 0.00 0.00 71 1012.9
20260831025948 71 9 0.0 0.0 0.00 0.00 0.00 70 1076.9
20260831024942 71 9 0.0 0.0 0.00 0.00 0.00 70 1012.8
20260831023943 71 9 0.0 0.0 0.00 0.00 0.00 71 535.3
20260831022942 71 9 0.0 0.0 0.00 0.00 0.00 71 1290.2
20260831021939 71 9 0.0 0.0 0.00 0.00 0.00 70 998.4
20260831021905 71 9 0.0 0.0 0.00 0.00 0.00 70 1022.2
20260831015939 71 9 0.0 0.0 0.00 0.00 0.00 69 999.1
20260831014932 71 9 0.0 4.0 0.00 0.00 0.00 69 1151.3
20260831014407 71 9 0.0 0.0 0.00 0.00 0.00 69 1031.8
20260831012931 72 9 0.0 1.0 0.00 0.00 0.00 69 1013.0
20260831011930 72 9 0.0 2.0 0.00 0.00 0.00 68 1013.1
20260831010930 72 9 0.0 4.0 0.00 0.00 0.00 68 934.3
20260831005930 72 9 0.0 0.0 0.00 0.00 0.00 68 1059.1
20260831004931 72 9 0.0 0.0 0.00 0.00 0.00 69 760.3
20260831003927 72 9 0.0 0.0 0.00 0.00 0.00 68 1005.8
20260831002929 73 9 0.0 0.0 0.00 0.00 0.00 68 1001.9
20260831001928 73 9 0.0 3.0 0.00 0.00 0.00 67 1109.0
20260831000927 73 9 0.0 2.0 0.00 0.00 0.00 68 1008.6
20260830235926 73 9 0.0 3.0 0.00 0.00 0.00 68 596.5
20260830235413 73 9 0.0 1.0 0.00 0.00 0.00 68 1013.4
20260830233918 73 9 0.0 3.0 0.00 0.00 0.00 68 1024.3
20260830232918 73 9 0.0 3.0 0.00 0.00 0.00 68 1013.5
20260830231918 73 9 0.0 2.0 0.00 0.00 0.00 68 1013.5
20260830230916 73 9 0.0 2.0 0.00 0.00 0.00 68 1036.8
20260830225915 73 9 0.0 3.0 0.00 0.00 0.00 68 1010.0
20260830225351 73 9 0.0 2.0 0.00 0.00 0.00 68 1013.6
20260830223911 74 9 0.0 0.0 0.00 0.00 0.00 68 1027.1
20260830222913 74 9 0.0 0.0 0.00 0.00 0.00 67 1013.6
20260830221911 74 9 0.0 2.0 0.00 0.00 0.00 67 1013.5
20260830220912 74 5 0.0 3.0 0.00 0.00 0.00 67 1013.3
20260830220348 75 286 0.0 0.0 0.00 0.00 0.00 66 1011.0
20260830214905 75 286 0.0 0.0 0.00 0.00 0.00 65 1013.5
20260830213904 75 286 0.0 0.0 0.00 0.00 0.00 65 1015.2
20260830212902 76 286 0.0 0.0 0.00 0.00 0.00 63 827.7
20260830211905 76 286 0.0 0.0 0.00 0.00 0.00 63 1013.5
20260830210905 76 286 0.0 0.0 0.00 0.00 0.00 63 993.3
20260830205902 76 286 0.0 2.0 0.00 0.00 0.00 64 991.4
20260830204904 76 286 0.0 2.0 0.00 0.00 0.00 64 1013.3
20260830203903 76 286 0.0 0.0 0.00 0.00 0.00 65 1050.5
20260830202904 76 286 0.0 0.0 0.00 0.00 0.00 64 1013.4
20260830201900 77 286 0.0 2.0 0.00 0.00 0.00 65 1012.0
20260830200856 77 286 0.0 2.0 0.00 0.00 0.00 63 1013.3
20260830195858 78 286 0.0 0.0 0.00 0.00 0.00 63 1013.3
20260830194853 79 286 0.0 0.0 0.00 0.00 0.00 62 1013.1
20260830194812 79 286 0.0 0.0 0.00 0.00 0.00 61 1154.2
20260830192854 80 286 0.0 0.0 0.00 0.00 0.00 60 1013.3
20260830192338 80 286 0.0 0.0 0.00 0.00 0.00 59 1013.2
20260830190848 80 286 0.0 0.0 0.00 0.00 0.00 59 1013.0
20260830190332 81 286 0.0 0.0 0.00 0.00 0.00 60 1013.0
20260830185344 81 286 0.0 0.0 0.00 0.00 0.00 57 1017.4
20260830183844 81 286 0.0 0.0 0.00 0.00 0.00 56 1012.7
20260830182846 82 286 0.0 0.0 0.00 0.00 0.00 55 951.8
20260830181838 83 286 0.0 0.0 0.00 0.00 0.00 54 834.9
20260830180838 83 286 0.0 0.0 0.00 0.00 0.00 52 497.7
20260830175839 84 286 0.0 0.0 0.00 0.00 0.00 51 1012.3
20260830174833 85 286 0.0 0.0 0.00 0.00 0.00 49 507.6
20260830173831 86 286 0.0 0.0 0.00 0.00 0.00 47 680.4
20260830172830 87 286 0.0 0.0 0.00 0.00 0.00 46 1291.6
20260830171830 87 286 0.0 0.0 0.00 0.00 0.00 46 681.9
20260830171806 87 286 0.0 0.0 0.00 0.00 0.00 45 516.0
20260830165831 88 286 0.0 0.0 0.00 0.00 0.00 44 635.9
20260830164831 88 286 0.0 0.0 0.00 0.00 0.00 43 466.4
20260830163831 89 286 0.0 0.0 0.00 0.00 0.00 42 1125.5
20260830163320 89 286 1.0 4.0 0.00 0.00 0.00 41 1012.3
20260830161833 89 275 1.0 6.0 0.00 0.00 0.00 42 1120.4
20260830160831 89 280 1.0 4.0 0.00 0.00 0.00 39 1012.4
20260830160313 89 286 2.0 7.0 0.00 0.00 0.00 40 927.7
20260830154830 89 260 1.0 5.0 0.00 0.00 0.00 39 1031.6
20260830153831 90 244 1.0 4.0 0.00 0.00 0.00 39 485.0
20260830153319 91 241 0.0 3.0 0.00 0.00 0.00 39 918.8
20260830151826 90 241 0.0 4.0 0.00 0.00 0.00 38 1012.3
20260830150826 90 241 0.0 3.0 0.00 0.00 0.00 37 1012.4
20260830145823 90 241 0.0 2.0 0.00 0.10 0.00 37 1179.9
20260830144821 90 241 1.0 4.0 0.00 0.10 0.00 38 464.1
20260830144259 90 236 1.0 6.0 0.00 0.10 0.00 39 1017.8
20260830142819 90 269 1.0 4.0 0.00 0.10 0.00 40 1012.7
20260830141818 90 257 1.0 5.0 0.00 0.10 0.00 37 1155.6
20260830141302 91 247 1.0 5.0 0.00 0.10 0.00 37 527.4
20260830135816 91 200 0.0 3.0 0.00 0.10 0.00 35 1166.9
20260830134814 91 200 1.0 3.0 0.00 0.10 0.00 38 1038.5
20260830134301 92 200 0.0 3.0 0.00 0.10 0.00 38 1013.1
20260830132812 92 200 0.0 0.0 0.00 0.10 0.00 34 1071.4
20260830132258 90 200 0.0 0.0 0.00 0.10 0.00 38 1210.9
20260830130811 90 200 0.0 0.0 0.00 0.10 0.00 40 1019.8
20260830125806 90 200 0.0 0.0 0.00 0.10 0.00 41 635.3
20260830124803 90 193 0.0 0.0 0.00 0.10 0.00 39 500.8
20260830123802 90 0 0.0 0.0 0.00 0.10 0.00 38 1013.4
20260830123239 90 0 0.0 0.0 0.00 0.10 0.00 39 687.2
20260830122255 89 0 0.0 0.0 0.00 0.10 0.00 39 802.1
20260830120802 89 0 0.0 0.0 0.00 0.10 0.00 40 1013.5
20260830115757 89 0 0.0 0.0 0.00 0.10 0.00 40 439.8
20260830115236 89 0 0.0 0.0 0.00 0.10 0.00 41 1013.5
20260830113758 89 121 0.0 0.0 0.00 0.10 0.00 41 574.0
20260830112759 89 122 0.0 0.0 0.00 0.10 0.00 42 1016.9
20260830111755 89 122 0.0 0.0 0.00 0.10 0.00 43 1072.9
20260830110754 88 90 0.0 0.0 0.00 0.10 0.00 43 1013.7
20260830105755 88 0 0.0 0.0 0.00 0.10 0.00 46 749.4
20260830104749 88 0 0.0 0.0 0.00 0.10 0.00 44 1159.6
20260830103749 87 0 0.0 0.0 0.00 0.10 0.00 44 1054.5
20260830102751 87 53 0.0 0.0 0.00 0.10 0.00 47 1013.9
20260830101747 87 0 0.0 0.0 0.00 0.10 0.00 47 1042.1
20260830100746 87 0 0.0 0.0 0.00 0.10 0.00 50 1124.6
20260830095747 87 0 0.0 0.0 0.00 0.10 0.00 53 1018.8
20260830094744 85 0 0.0 0.0 0.00 0.10 0.00 52 930.3
20260830094234 85 0 0.0 0.0 0.00 0.10 0.00 52 645.8
20260830092741 85 0 0.0 4.0 0.00 0.10 0.00 53 1216.5
20260830091738 84 94 1.0 6.0 0.00 0.10 0.00 54 1194.3
20260830090737 84 103 3.0 7.0 0.00 0.10 0.00 55 1014.5
20260830085737 83 94 4.0 9.0 0.00 0.10 0.00 56 575.6
20260830084732 83 0 2.0 6.0 0.00 0.10 0.00 55 891.7
20260830083731 83 55 1.0 5.0 0.00 0.10 0.00 56 1112.9
20260830083207 83 55 1.0 5.0 0.00 0.10 0.00 56 1014.4
20260830082646 82 43 1.0 6.0 0.00 0.10 0.00 57 1019.3
20260830080731 80 9 1.0 7.0 0.00 0.10 0.00 59 1145.4
20260830075730 80 9 0.0 3.0 0.00 0.10 0.00 59 537.4
20260830074730 80 9 0.0 4.0 0.00 0.10 0.00 62 537.4
20260830073728 79 9 1.0 4.0 0.00 0.10 0.00 63 1010.5
20260830072726 78 9 1.0 7.0 0.00 0.10 0.00 63 408.2
20260830071726 78 5 0.0 4.0 0.00 0.10 0.00 64 1014.3
20260830070721 77 5 0.0 4.0 0.00 0.10 0.00 67 959.6
20260830065720 76 5 0.0 5.0 0.00 0.10 0.00 68 661.8
20260830064722 76 5 0.0 1.0 0.00 0.10 0.00 69 1014.2
20260830064200 75 5 0.0 3.0 0.00 0.10 0.00 70 523.9
20260830063215 74 5 0.0 4.0 0.00 0.10 0.00 72 1271.3
20260830061717 73 5 0.0 4.0 0.00 0.10 0.00 72 1014.3
20260830060715 73 5 0.0 0.0 0.00 0.10 0.00 74 886.3
20260830055711 72 5 0.0 0.0 0.00 0.10 0.00 74 1067.0
20260830054712 71 9 0.0 0.0 0.00 0.10 0.00 75 516.8
20260830053710 70 5 0.0 0.0 0.00 0.10 0.00 76 408.5
20260830052708 69 5 0.0 0.0 0.00 0.10 0.00 78 1014.2
20260830051709 69 5 0.0 0.0 0.00 0.10 0.00 78 660.1